Location: Lake of the Woods (North-East)
(49.6672°N, 94.8656°W)
Time: 01:54:06
(UTC-05:00)

ISS - All Passes

Search period start: 01 November 2014 00:00
Search period end: 10 November 2014 23:00
Orbit: 412 x 417 km, 51.6° (Epoch: 01 November)

Date Brightness Start Highest point End Pass type
(mag) Time Alt. Az. Time Alt. Az. Time Alt. Az.
01 Nov - 10:27:04 10° S 10:29:32 20° SE 10:32:02 10° E daylight
01 Nov - 12:02:32 10° WSW 12:05:51 79° SSE 12:09:12 10° ENE daylight
01 Nov - 13:39:22 10° W 13:42:41 59° N 13:45:59 10° E daylight
01 Nov - 15:16:10 10° WNW 15:19:31 84° SSW 15:22:51 10° ESE daylight
01 Nov - 16:53:15 10° W 16:55:52 22° SW 16:58:30 10° SSE daylight
02 Nov - 08:38:59 10° SSE 08:40:33 13° SE 08:42:07 10° ESE daylight
02 Nov - 10:13:25 10° SW 10:16:41 57° SSE 10:19:58 10° ENE daylight
02 Nov - 11:50:06 10° W 11:53:24 62° N 11:56:43 10° ENE daylight
02 Nov - 13:26:56 10° WNW 13:30:17 77° NNE 13:33:38 10° E daylight
02 Nov - 15:03:47 10° W 15:06:48 32° SSW 15:09:49 10° SSE daylight
03 Nov - 09:24:23 10° SW 09:27:31 39° SSE 09:30:39 10° E daylight
03 Nov - 11:00:47 10° W 11:04:06 70° NNW 11:07:26 10° ENE daylight
03 Nov - 12:37:40 10° WNW 12:41:00 65° N 12:44:19 10° E daylight
03 Nov - 14:14:25 10° WNW 14:17:39 47° SSW 14:20:52 10° SE daylight
03 Nov - 15:53:29 10° SW 15:53:41 10° SW 15:53:53 10° SW daylight
04 Nov - 08:35:31 10° SSW 08:38:21 26° SE 08:41:12 10° E daylight
04 Nov - 10:11:28 10° WSW 10:14:48 85° NNW 10:18:08 10° ENE daylight
04 Nov - 11:48:21 10° WNW 11:51:39 60° N 11:54:57 10° E daylight
04 Nov - 13:25:06 10° WNW 13:28:25 68° SSW 13:31:44 10° ESE daylight
04 Nov - 15:02:31 10° W 15:04:38 16° SW 15:06:45 10° S daylight
05 Nov - 07:46:55 10° S 07:49:13 18° SE 07:51:31 10° E daylight
05 Nov - 09:22:10 10° WSW 09:25:29 73° SSE 09:28:48 10° ENE daylight
05 Nov - 10:58:58 10° W 11:02:16 59° N 11:05:34 10° E daylight
05 Nov - 12:35:45 10° WNW 12:39:06 90° SSW 12:42:26 10° ESE daylight
05 Nov - 14:12:45 10° W 14:15:30 24° SW 14:18:14 10° SSE daylight
06 Nov - 06:59:00 10° SSE 07:00:05 11° SE 07:01:11 10° ESE daylight
06 Nov - 08:32:56 10° SW 08:36:10 52° SSE 08:39:25 10° ENE daylight
06 Nov - 10:09:32 10° W 10:12:50 63° N 10:16:09 10° ENE daylight
06 Nov - 11:46:23 10° WNW 11:49:43 73° NNE 11:53:03 10° E daylight
06 Nov - 13:23:11 10° W 13:26:16 35° SSW 13:29:21 10° SE daylight
07 Nov - 07:43:48 10° SW 07:46:51 35° SSE 07:49:56 10° E daylight
07 Nov - 09:20:04 10° W 09:23:24 73° NNW 09:26:44 10° ENE daylight
07 Nov - 10:56:57 10° WNW 11:00:16 63° N 11:03:35 10° E daylight
07 Nov - 12:33:42 10° WNW 12:36:57 52° SSW 12:40:12 10° SE daylight
07 Nov - 14:11:51 10° WSW 14:13:02 12° SW 14:14:12 10° SSW daylight
08 Nov - 06:54:51 10° SSW 06:57:34 24° SE 07:00:17 10° E daylight
08 Nov - 08:30:37 10° WSW 08:33:57 89° SSE 08:37:17 10° ENE daylight
08 Nov - 10:07:29 10° W 10:10:46 59° N 10:14:04 10° E daylight
08 Nov - 11:44:14 10° WNW 11:47:33 74° SSW 11:50:52 10° ESE daylight
08 Nov - 13:21:29 10° W 13:23:49 18° SW 13:26:08 10° S daylight
09 Nov - 06:06:13 10° S 06:08:17 16° SE 06:10:21 10° E visible
09 Nov - 07:41:11 10° WSW 07:44:29 67° SSE 07:47:48 10° ENE daylight
09 Nov - 09:17:56 10° W 09:21:14 60° N 09:24:32 10° ENE daylight
09 Nov - 10:54:44 10° WNW 10:58:05 85° NNE 11:01:25 10° ESE daylight
09 Nov - 12:31:39 10° W 12:34:31 27° SW 12:37:22 10° SSE daylight
10 Nov - 06:51:51 10° SW 06:55:02 46° SSE 06:58:15 10° ENE daylight
10 Nov - 08:28:22 10° W 08:31:40 65° N 08:34:59 10° ENE daylight
10 Nov - 10:05:13 10° WNW 10:08:32 70° N 10:11:52 10° E daylight
10 Nov - 11:41:59 10° W 11:45:07 39° SSW 11:48:15 10° SE daylight
